| time (UTC) | temp C | wind direction | speed KPH | gust KPH | rain 1hr cm | rain 24hr cm | rain mn cm | humidity % | barometer mb |
| 20260502130334 | 30 | 143 | 3.2 | 6.4 | 0.00 | 0.00 | 0.00 | 23 | 1021.6 |
| 20260502123318 | 31 | 128 | 1.6 | 4.8 | 0.00 | 0.00 | 0.00 | 24 | 1022.0 |
| 20260502122816 | 31 | 147 | 3.2 | 8.0 | 0.00 | 0.00 | 0.00 | 23 | 1022.1 |
| 20260502122313 | 31 | 115 | 1.6 | 4.8 | 0.00 | 0.00 | 0.00 | 24 | 1022.2 |
| 20260502121811 | 30 | 217 | 3.2 | 9.7 | 0.00 | 0.00 | 0.00 | 24 | 1022.2 |
| 20260502121308 | 31 | 139 | 1.6 | 1.6 | 0.00 | 0.00 | 0.00 | 24 | 1022.3 |
| 20260502120806 | 30 | 170 | 3.2 | 6.4 | 0.00 | 0.00 | 0.00 | 23 | 1022.3 |
| 20260502120303 | 30 | 164 | 3.2 | 8.0 | 0.00 | 0.00 | 0.00 | 24 | 1022.4 |
| 20260502115801 | 30 | 136 | 1.6 | 4.8 | 0.00 | 0.00 | 0.00 | 23 | 1022.5 |
| 20260502115259 | 29 | 116 | 4.8 | 9.7 | 0.00 | 0.00 | 0.00 | 23 | 1022.5 |
| 20260502114756 | 30 | 126 | 3.2 | 8.0 | 0.00 | 0.00 | 0.00 | 22 | 1022.6 |
| 20260502114254 | 30 | 152 | 3.2 | 4.8 | 0.00 | 0.00 | 0.00 | 23 | 1022.7 |
| 20260502113751 | 30 | 200 | 3.2 | 6.4 | 0.00 | 0.00 | 0.00 | 24 | 1022.9 |
| 20260502113249 | 30 | 76 | 1.6 | 4.8 | 0.00 | 0.00 | 0.00 | 25 | 1023.0 |
| 20260502112746 | 30 | 158 | 1.6 | 3.2 | 0.00 | 0.00 | 0.00 | 26 | 1023.0 |
| 20260502112244 | 30 | 201 | 1.6 | 4.8 | 0.00 | 0.00 | 0.00 | 25 | 1023.0 |
| 20260502111741 | 30 | 156 | 1.6 | 3.2 | 0.00 | 0.00 | 0.00 | 25 | 1023.1 |
| 20260502111239 | 29 | 171 | 1.6 | 3.2 | 0.00 | 0.00 | 0.00 | 26 | 1023.1 |
| 20260502110736 | 28 | 129 | 1.6 | 4.8 | 0.00 | 0.00 | 0.00 | 25 | 1023.3 |
| 20260502110234 | 28 | 202 | 4.8 | 9.7 | 0.00 | 0.00 | 0.00 | 25 | 1023.3 |
| 20260502105732 | 28 | 132 | 1.6 | 4.8 | 0.00 | 0.00 | 0.00 | 24 | 1023.3 |
| 20260502105229 | 29 | 138 | 1.6 | 4.8 | 0.00 | 0.00 | 0.00 | 27 | 1023.4 |
| 20260502104727 | 28 | 85 | 3.2 | 8.0 | 0.00 | 0.00 | 0.00 | 27 | 1023.4 |
| 20260502104225 | 29 | 104 | 1.6 | 4.8 | 0.00 | 0.00 | 0.00 | 26 | 1023.5 |
| 20260502103723 | 29 | 135 | 3.2 | 9.7 | 0.00 | 0.00 | 0.00 | 26 | 1023.6 |
| 20260502103220 | 29 | 122 | 1.6 | 1.6 | 0.00 | 0.00 | 0.00 | 28 | 1023.7 |
| 20260502102718 | 28 | 103 | 1.6 | 4.8 | 0.00 | 0.00 | 0.00 | 28 | 1023.7 |
| 20260502102216 | 28 | 85 | 3.2 | 6.4 | 0.00 | 0.00 | 0.00 | 28 | 1023.8 |
| 20260502101714 | 28 | 118 | 3.2 | 6.4 | 0.00 | 0.00 | 0.00 | 28 | 1023.9 |
| 20260502101211 | 28 | 120 | 3.2 | 6.4 | 0.00 | 0.00 | 0.00 | 28 | 1024.0 |
| 20260502100709 | 28 | 132 | 3.2 | 4.8 | 0.00 | 0.00 | 0.00 | 27 | 1024.0 |
| 20260502100206 | 29 | 135 | 3.2 | 4.8 | 0.00 | 0.00 | 0.00 | 28 | 1024.0 |
| 20260502091145 | 26 | 143 | 3.2 | 8.0 | 0.00 | 0.00 | 0.00 | 33 | 1024.7 |
| 20260502090643 | 26 | 149 | 1.6 | 4.8 | 0.00 | 0.00 | 0.00 | 33 | 1024.7 |
| 20260502090141 | 26 | 142 | 4.8 | 9.7 | 0.00 | 0.00 | 0.00 | 34 | 1024.7 |
| 20260502071107 | 17 | 84 | 1.6 | 4.8 | 0.00 | 0.00 | 0.00 | 59 | 1025.5 |
| 20260502070606 | 17 | 112 | 1.6 | 4.8 | 0.00 | 0.00 | 0.00 | 59 | 1025.6 |
| 20260502070105 | 17 | 120 | 1.6 | 3.2 | 0.00 | 0.00 | 0.00 | 59 | 1025.6 |
| 20260502065604 | 16 | 85 | 3.2 | 4.8 | 0.00 | 0.00 | 0.00 | 60 | 1025.6 |
| 20260502065103 | 17 | 123 | 1.6 | 3.2 | 0.00 | 0.00 | 0.00 | 59 | 1025.6 |
| 20260502064602 | 16 | 112 | 1.6 | 4.8 | 0.00 | 0.00 | 0.00 | 60 | 1025.6 |
| 20260502064101 | 16 | 128 | 1.6 | 4.8 | 0.00 | 0.00 | 0.00 | 60 | 1025.7 |
| 20260502063600 | 15 | 135 | 1.6 | 4.8 | 0.00 | 0.00 | 0.00 | 61 | 1025.7 |
| 20260502063059 | 15 | 138 | 1.6 | 3.2 | 0.00 | 0.00 | 0.00 | 63 | 1025.8 |
| 20260502062559 | 13 | 144 | 1.6 | 3.2 | 0.00 | 0.00 | 0.00 | 65 | 1025.8 |
| 20260502062058 | 12 | 159 | 1.6 | 3.2 | 0.00 | 0.00 | 0.00 | 66 | 1025.8 |
| 20260502061558 | 12 | 161 | 0.0 | 0.0 | 0.00 | 0.00 | 0.00 | 65 | 1025.8 |
| 20260502061057 | 11 | 147 | 0.0 | 1.6 | 0.00 | 0.00 | 0.00 | 67 | 1025.8 |
| 20260502060557 | 9 | 223 | 3.2 | 4.8 | 0.00 | 0.00 | 0.00 | 66 | 1025.8 |
| 20260502060057 | 9 | 228 | 4.8 | 8.0 | 0.00 | 0.00 | 0.00 | 66 | 1025.8 |
| 20260502055557 | 8 | 225 | 6.4 | 9.7 | 0.00 | 0.00 | 0.00 | 67 | 1025.9 |
| 20260502055056 | 8 | 225 | 6.4 | 8.0 | 0.00 | 0.00 | 0.00 | 68 | 1025.9 |
| 20260502054556 | 8 | 232 | 6.4 | 9.7 | 0.00 | 0.00 | 0.00 | 68 | 1025.9 |
| 20260502054056 | 8 | 218 | 6.4 | 8.0 | 0.00 | 0.00 | 0.00 | 68 | 1025.9 |
| 20260502053556 | 9 | 164 | 1.6 | 1.6 | 0.00 | 0.00 | 0.00 | 67 | 1025.9 |
| 20260502053055 | 9 | 159 | 1.6 | 3.2 | 0.00 | 0.00 | 0.00 | 72 | 1025.8 |
| 20260502052555 | 8 | 143 | 0.0 | 1.6 | 0.00 | 0.00 | 0.00 | 72 | 1025.9 |
| 20260502052055 | 8 | 145 | 3.2 | 4.8 | 0.00 | 0.00 | 0.00 | 72 | 1025.9 |
| 20260502051555 | 7 | 149 | 3.2 | 6.4 | 0.00 | 0.00 | 0.00 | 72 | 1025.9 |
| 20260502051055 | 7 | 145 | 6.4 | 8.0 | 0.00 | 0.00 | 0.00 | 72 | 1025.8 |
| 20260502050555 | 7 | 149 | 6.4 | 8.0 | 0.00 | 0.00 | 0.00 | 72 | 1025.8 |
| 20260502050055 | 7 | 140 | 8.0 | 11.3 | 0.00 | 0.00 | 0.00 | 72 | 1025.8 |
| 20260502045555 | 7 | 163 | 8.0 | 9.7 | 0.00 | 0.00 | 0.00 | 72 | 1025.7 |
| 20260502045055 | 6 | 166 | 6.4 | 8.0 | 0.00 | 0.00 | 0.00 | 73 | 1025.7 |
| 20260502044555 | 6 | 156 | 6.4 | 8.0 | 0.00 | 0.00 | 0.00 | 73 | 1025.7 |
| 20260502044055 | 6 | 180 | 6.4 | 8.0 | 0.00 | 0.00 | 0.00 | 73 | 1025.7 |
| 20260502043555 | 6 | 177 | 6.4 | 6.4 | 0.00 | 0.00 | 0.00 | 72 | 1025.7 |
| 20260502043055 | 6 | 180 | 4.8 | 6.4 | 0.00 | 0.00 | 0.00 | 72 | 1025.7 |
| 20260502042555 | 6 | 187 | 3.2 | 3.2 | 0.00 | 0.00 | 0.00 | 72 | 1025.7 |
| 20260502042055 | 7 | 187 | 1.6 | 3.2 | 0.00 | 0.00 | 0.00 | 72 | 1025.8 |
| 20260502041555 | 6 | 180 | 0.0 | 0.0 | 0.00 | 0.00 | 0.00 | 72 | 1025.8 |
| 20260502041055 | 6 | 180 | 0.0 | 0.0 | 0.00 | 0.00 | 0.00 | 72 | 1025.8 |
| 20260502040555 | 6 | 180 | 0.0 | 0.0 | 0.00 | 0.00 | 0.00 | 72 | 1025.8 |
| 20260502040055 | 6 | 175 | 0.0 | 1.6 | 0.00 | 0.00 | 0.00 | 72 | 1025.8 |
| 20260502035555 | 6 | 171 | 1.6 | 3.2 | 0.00 | 0.00 | 0.00 | 71 | 1025.7 |
| 20260502035055 | 6 | 161 | 3.2 | 4.8 | 0.00 | 0.00 | 0.00 | 71 | 1025.7 |
| 20260502034555 | 6 | 175 | 6.4 | 6.4 | 0.00 | 0.00 | 0.00 | 72 | 1025.7 |
| 20260502034056 | 6 | 163 | 6.4 | 8.0 | 0.00 | 0.00 | 0.00 | 72 | 1025.6 |
| 20260502033556 | 6 | 173 | 3.2 | 6.4 | 0.00 | 0.00 | 0.00 | 71 | 1025.7 |
| 20260502033056 | 6 | 180 | 3.2 | 4.8 | 0.00 | 0.00 | 0.00 | 72 | 1025.7 |
| 20260502032556 | 6 | 177 | 3.2 | 4.8 | 0.00 | 0.00 | 0.00 | 70 | 1025.7 |
| 20260502032056 | 6 | 199 | 1.6 | 3.2 | 0.00 | 0.00 | 0.00 | 70 | 1025.7 |
| 20260502031556 | 6 | 182 | 3.2 | 3.2 | 0.00 | 0.00 | 0.00 | 71 | 1025.8 |
| 20260502031056 | 7 | 180 | 3.2 | 4.8 | 0.00 | 0.00 | 0.00 | 69 | 1025.7 |
| 20260502030556 | 6 | 173 | 4.8 | 4.8 | 0.00 | 0.00 | 0.00 | 70 | 1025.8 |
| 20260502030056 | 6 | 152 | 4.8 | 4.8 | 0.00 | 0.00 | 0.00 | 70 | 1025.7 |
| 20260502025556 | 6 | 180 | 1.6 | 4.8 | 0.00 | 0.00 | 0.00 | 69 | 1025.8 |
| 20260502025057 | 7 | 180 | 1.6 | 3.2 | 0.00 | 0.00 | 0.00 | 70 | 1025.8 |
| 20260502024557 | 7 | 180 | 3.2 | 3.2 | 0.00 | 0.00 | 0.00 | 68 | 1025.8 |
| 20260502024057 | 7 | 180 | 3.2 | 4.8 | 0.00 | 0.00 | 0.00 | 70 | 1025.9 |
| 20260502023557 | 7 | 180 | 4.8 | 4.8 | 0.00 | 0.00 | 0.00 | 68 | 1025.8 |
| 20260502023057 | 7 | 180 | 3.2 | 4.8 | 0.00 | 0.00 | 0.00 | 67 | 1025.9 |
| 20260502022557 | 7 | 180 | 4.8 | 4.8 | 0.00 | 0.00 | 0.00 | 67 | 1025.9 |
| 20260502022057 | 7 | 175 | 3.2 | 4.8 | 0.00 | 0.00 | 0.00 | 67 | 1025.9 |
| 20260502021557 | 7 | 188 | 1.6 | 4.8 | 0.00 | 0.00 | 0.00 | 68 | 1025.9 |
| 20260502021057 | 7 | 180 | 3.2 | 4.8 | 0.00 | 0.00 | 0.00 | 67 | 1025.9 |
| 20260502020557 | 8 | 180 | 3.2 | 4.8 | 0.00 | 0.00 | 0.00 | 66 | 1025.8 |
| 20260502020057 | 7 | 180 | 4.8 | 6.4 | 0.00 | 0.00 | 0.00 | 66 | 1025.9 |
| 20260502015557 | 7 | 180 | 3.2 | 4.8 | 0.00 | 0.00 | 0.00 | 66 | 1025.9 |
| 20260502015057 | 8 | 180 | 3.2 | 4.8 | 0.00 | 0.00 | 0.00 | 66 | 1025.9 |
| 20260502014557 | 7 | 185 | 3.2 | 4.8 | 0.00 | 0.00 | 0.00 | 66 | 1025.9 |
| 20260502014057 | 8 | 195 | 1.6 | 4.8 | 0.00 | 0.00 | 0.00 | 67 | 1026.0 |
| 20260502013557 | 7 | 190 | 3.2 | 4.8 | 0.00 | 0.00 | 0.00 | 67 | 1025.9 |
| 20260502013057 | 7 | 183 | 3.2 | 6.4 | 0.00 | 0.00 | 0.00 | 68 | 1026.0 |
| 20260502012557 | 7 | 180 | 6.4 | 6.4 | 0.00 | 0.00 | 0.00 | 66 | 1025.9 |
| 20260502012057 | 7 | 180 | 4.8 | 6.4 | 0.00 | 0.00 | 0.00 | 65 | 1026.0 |
| 20260502011557 | 7 | 170 | 6.4 | 8.0 | 0.00 | 0.00 | 0.00 | 66 | 1026.1 |
| 20260502011102 | 8 | 170 | 4.8 | 8.0 | 0.00 | 0.00 | 0.00 | 65 | 1026.0 |
| 20260502011057 | 8 | 170 | 4.8 | 8.0 | 0.00 | 0.00 | 0.00 | 65 | 1026.0 |
| 20260502010557 | 8 | 187 | 3.2 | 4.8 | 0.00 | 0.00 | 0.00 | 63 | 1026.1 |
| 20260502010057 | 8 | 197 | 4.8 | 6.4 | 0.00 | 0.00 | 0.00 | 66 | 1026.1 |
| 20260502005557 | 8 | 185 | 3.2 | 4.8 | 0.00 | 0.00 | 0.00 | 63 | 1026.1 |
| 20260502005057 | 9 | 195 | 4.8 | 8.0 | 0.00 | 0.00 | 0.00 | 64 | 1026.1 |
| 20260502004557 | 9 | 173 | 6.4 | 6.4 | 0.00 | 0.00 | 0.00 | 62 | 1026.1 |
| 20260502004057 | 9 | 185 | 4.8 | 6.4 | 0.00 | 0.00 | 0.00 | 61 | 1026.1 |
| 20260502003557 | 10 | 218 | 4.8 | 6.4 | 0.00 | 0.00 | 0.00 | 60 | 1026.2 |
| 20260502003057 | 10 | 215 | 6.4 | 9.7 | 0.00 | 0.00 | 0.00 | 60 | 1026.2 |
| 20260502002557 | 10 | 225 | 8.0 | 11.3 | 0.00 | 0.00 | 0.00 | 61 | 1026.3 |
| 20260502002056 | 10 | 230 | 9.7 | 11.3 | 0.00 | 0.00 | 0.00 | 62 | 1026.3 |
| 20260502001556 | 10 | 237 | 8.0 | 11.3 | 0.00 | 0.00 | 0.00 | 62 | 1026.3 |
| 20260502001056 | 10 | 228 | 8.0 | 11.3 | 0.00 | 0.00 | 0.00 | 62 | 1026.3 |
| 20260502000556 | 10 | 235 | 8.0 | 9.7 | 0.00 | 0.00 | 0.00 | 62 | 1026.3 |
| 20260502000056 | 10 | 239 | 4.8 | 8.0 | 0.00 | 0.00 | 0.00 | 60 | 1026.3 |
| 20260501235556 | 10 | 239 | 4.8 | 6.4 | 0.00 | 0.00 | 0.00 | 60 | 1026.4 |
| 20260501235056 | 10 | 232 | 8.0 | 9.7 | 0.00 | 0.00 | 0.00 | 60 | 1026.4 |
| 20260501234555 | 10 | 239 | 11.3 | 12.9 | 0.00 | 0.00 | 0.00 | 59 | 1026.4 |
| 20260501234055 | 10 | 237 | 9.7 | 12.9 | 0.00 | 0.00 | 0.00 | 59 | 1026.4 |
| 20260501233555 | 10 | 233 | 11.3 | 12.9 | 0.00 | 0.00 | 0.00 | 59 | 1026.4 |
| 20260501233055 | 10 | 241 | 9.7 | 11.3 | 0.00 | 0.00 | 0.00 | 60 | 1026.4 |
| 20260501232555 | 11 | 244 | 9.7 | 11.3 | 0.00 | 0.00 | 0.00 | 59 | 1026.4 |
| 20260501232054 | 11 | 228 | 9.7 | 12.9 | 0.00 | 0.00 | 0.00 | 58 | 1026.5 |
| 20260501231554 | 11 | 225 | 11.3 | 11.3 | 0.00 | 0.00 | 0.00 | 58 | 1026.4 |
| 20260501231054 | 11 | 223 | 9.7 | 11.3 | 0.00 | 0.00 | 0.00 | 58 | 1026.4 |
| 20260501230554 | 11 | 235 | 9.7 | 12.9 | 0.00 | 0.00 | 0.00 | 58 | 1026.5 |
| 20260501230054 | 11 | 237 | 9.7 | 11.3 | 0.00 | 0.00 | 0.00 | 57 | 1026.5 |
| 20260501225553 | 11 | 235 | 8.0 | 9.7 | 0.00 | 0.00 | 0.00 | 57 | 1026.4 |
| 20260501225053 | 11 | 218 | 6.4 | 9.7 | 0.00 | 0.00 | 0.00 | 57 | 1026.5 |
| 20260501224553 | 11 | 232 | 6.4 | 8.0 | 0.00 | 0.00 | 0.00 | 57 | 1026.5 |
| 20260501224053 | 11 | 232 | 8.0 | 11.3 | 0.00 | 0.00 | 0.00 | 56 | 1026.5 |
| 20260501223552 | 11 | 225 | 11.3 | 12.9 | 0.00 | 0.00 | 0.00 | 56 | 1026.5 |
| 20260501223052 | 11 | 234 | 9.7 | 11.3 | 0.00 | 0.00 | 0.00 | 57 | 1026.5 |
| 20260501222552 | 11 | 244 | 6.4 | 8.0 | 0.00 | 0.00 | 0.00 | 56 | 1026.5 |
| 20260501222052 | 11 | 215 | 4.8 | 8.0 | 0.00 | 0.00 | 0.00 | 56 | 1026.5 |
| 20260501221551 | 11 | 225 | 9.7 | 11.3 | 0.00 | 0.00 | 0.00 | 57 | 1026.5 |
| 20260501221051 | 12 | 241 | 9.7 | 11.3 | 0.00 | 0.00 | 0.00 | 57 | 1026.5 |
| 20260501220551 | 12 | 228 | 11.3 | 12.9 | 0.00 | 0.00 | 0.00 | 57 | 1026.5 |
| 20260501220051 | 12 | 232 | 12.9 | 14.5 | 0.00 | 0.00 | 0.00 | 56 | 1026.6 |
| 20260501215550 | 12 | 237 | 11.3 | 14.5 | 0.00 | 0.00 | 0.00 | 56 | 1026.5 |
| 20260501215050 | 12 | 244 | 9.7 | 11.3 | 0.00 | 0.00 | 0.00 | 54 | 1026.5 |
| 20260501214550 | 12 | 242 | 6.4 | 9.7 | 0.00 | 0.00 | 0.00 | 53 | 1026.6 |
| 20260501214049 | 12 | 218 | 4.8 | 6.4 | 0.00 | 0.00 | 0.00 | 52 | 1026.5 |
| 20260501213549 | 12 | 228 | 4.8 | 6.4 | 0.00 | 0.00 | 0.00 | 52 | 1026.5 |
| 20260501213048 | 13 | 222 | 3.2 | 3.2 | 0.00 | 0.00 | 0.00 | 48 | 1026.5 |
| 20260501212548 | 14 | 222 | 4.8 | 8.0 | 0.00 | 0.00 | 0.00 | 48 | 1026.5 |
| 20260501212047 | 14 | 227 | 8.0 | 9.7 | 0.00 | 0.00 | 0.00 | 48 | 1026.5 |
| 20260501211547 | 14 | 235 | 8.0 | 9.7 | 0.00 | 0.00 | 0.00 | 48 | 1026.4 |
| 20260501211046 | 14 | 237 | 6.4 | 8.0 | 0.00 | 0.00 | 0.00 | 47 | 1026.5 |
| 20260501210546 | 15 | 223 | 3.2 | 6.4 | 0.00 | 0.00 | 0.00 | 46 | 1026.4 |
| 20260501210046 | 15 | 251 | 8.0 | 9.7 | 0.00 | 0.00 | 0.00 | 47 | 1026.5 |
| 20260501205545 | 14 | 228 | 6.4 | 8.0 | 0.00 | 0.00 | 0.00 | 47 | 1026.5 |
| 20260501205044 | 15 | 251 | 8.0 | 9.7 | 0.00 | 0.00 | 0.00 | 47 | 1026.5 |
| 20260501204544 | 15 | 235 | 6.4 | 8.0 | 0.00 | 0.00 | 0.00 | 46 | 1026.5 |
| 20260501204044 | 15 | 253 | 6.4 | 8.0 | 0.00 | 0.00 | 0.00 | 46 | 1026.5 |
| 20260501203543 | 15 | 227 | 8.0 | 9.7 | 0.00 | 0.00 | 0.00 | 47 | 1026.5 |
| 20260501203042 | 15 | 239 | 9.7 | 14.5 | 0.00 | 0.00 | 0.00 | 48 | 1026.6 |
| 20260501202542 | 15 | 235 | 9.7 | 11.3 | 0.00 | 0.00 | 0.00 | 48 | 1026.5 |
| 20260501202041 | 15 | 225 | 8.0 | 9.7 | 0.00 | 0.00 | 0.00 | 48 | 1026.5 |
| 20260501201541 | 14 | 246 | 8.0 | 9.7 | 0.00 | 0.00 | 0.00 | 48 | 1026.5 |
| 20260501201040 | 15 | 234 | 8.0 | 9.7 | 0.00 | 0.00 | 0.00 | 48 | 1026.5 |
| 20260501200540 | 15 | 237 | 8.0 | 9.7 | 0.00 | 0.00 | 0.00 | 47 | 1026.5 |
| 20260501200039 | 15 | 244 | 6.4 | 8.0 | 0.00 | 0.00 | 0.00 | 46 | 1026.4 |
| 20260501195539 | 15 | 248 | 6.4 | 9.7 | 0.00 | 0.00 | 0.00 | 46 | 1026.4 |
| 20260501195038 | 15 | 254 | 6.4 | 8.0 | 0.00 | 0.00 | 0.00 | 45 | 1026.4 |
| 20260501194538 | 16 | 253 | 9.7 | 12.9 | 0.00 | 0.00 | 0.00 | 45 | 1026.3 |
| 20260501194037 | 16 | 249 | 8.0 | 9.7 | 0.00 | 0.00 | 0.00 | 45 | 1026.4 |
| 20260501193536 | 16 | 235 | 8.0 | 9.7 | 0.00 | 0.00 | 0.00 | 45 | 1026.4 |
| 20260501193036 | 16 | 258 | 8.0 | 8.0 | 0.00 | 0.00 | 0.00 | 45 | 1026.4 |
| 20260501192535 | 16 | 228 | 6.4 | 8.0 | 0.00 | 0.00 | 0.00 | 45 | 1026.4 |
| 20260501192035 | 16 | 232 | 4.8 | 6.4 | 0.00 | 0.00 | 0.00 | 44 | 1026.4 |
| 20260501191534 | 16 | 232 | 4.8 | 6.4 | 0.00 | 0.00 | 0.00 | 43 | 1026.4 |
| 20260501191033 | 16 | 225 | 3.2 | 4.8 | 0.00 | 0.00 | 0.00 | 41 | 1026.4 |
| 20260501190533 | 17 | 225 | 3.2 | 3.2 | 0.00 | 0.00 | 0.00 | 41 | 1026.4 |
| 20260501190032 | 17 | 225 | 4.8 | 4.8 | 0.00 | 0.00 | 0.00 | 41 | 1026.3 |
| 20260501185531 | 17 | 225 | 4.8 | 6.4 | 0.00 | 0.00 | 0.00 | 41 | 1026.3 |
| 20260501185030 | 17 | 227 | 4.8 | 6.4 | 0.00 | 0.00 | 0.00 | 41 | 1026.2 |
| 20260501184530 | 17 | 248 | 6.4 | 8.0 | 0.00 | 0.00 | 0.00 | 41 | 1026.2 |
| 20260501184029 | 17 | 255 | 6.4 | 6.4 | 0.00 | 0.00 | 0.00 | 41 | 1026.2 |
| 20260501183528 | 17 | 244 | 6.4 | 8.0 | 0.00 | 0.00 | 0.00 | 41 | 1026.1 |
| 20260501183027 | 17 | 237 | 6.4 | 8.0 | 0.00 | 0.00 | 0.00 | 40 | 1026.1 |
| 20260501182527 | 18 | 235 | 6.4 | 6.4 | 0.00 | 0.00 | 0.00 | 40 | 1026.1 |
| 20260501182026 | 18 | 249 | 6.4 | 6.4 | 0.00 | 0.00 | 0.00 | 39 | 1026.1 |
| 20260501181525 | 18 | 258 | 6.4 | 6.4 | 0.00 | 0.00 | 0.00 | 39 | 1026.1 |
| 20260501181024 | 18 | 258 | 4.8 | 6.4 | 0.00 | 0.00 | 0.00 | 39 | 1026.0 |
| 20260501180523 | 19 | 277 | 6.4 | 6.4 | 0.00 | 0.00 | 0.00 | 39 | 1026.0 |
| 20260501180022 | 19 | 270 | 6.4 | 6.4 | 0.00 | 0.00 | 0.00 | 38 | 1026.0 |
| 20260501175521 | 20 | 273 | 6.4 | 8.0 | 0.00 | 0.00 | 0.00 | 38 | 1026.0 |
| 20260501175020 | 20 | 280 | 8.0 | 8.0 | 0.00 | 0.00 | 0.00 | 38 | 1026.0 |
| 20260501174519 | 20 | 284 | 6.4 | 8.0 | 0.00 | 0.00 | 0.00 | 37 | 1025.9 |
| 20260501174018 | 20 | 287 | 4.8 | 8.0 | 0.00 | 0.00 | 0.00 | 36 | 1025.9 |
| 20260501173517 | 21 | 289 | 6.4 | 8.0 | 0.00 | 0.00 | 0.00 | 36 | 1025.9 |
| 20260501173016 | 21 | 294 | 6.4 | 9.7 | 0.00 | 0.00 | 0.00 | 35 | 1025.8 |
| 20260501172515 | 21 | 293 | 6.4 | 8.0 | 0.00 | 0.00 | 0.00 | 35 | 1025.9 |
| 20260501172014 | 22 | 273 | 3.2 | 6.4 | 0.00 | 0.00 | 0.00 | 34 | 1025.8 |
| 20260501171513 | 22 | 317 | 8.0 | 9.7 | 0.00 | 0.00 | 0.00 | 34 | 1025.8 |
| 20260501171011 | 22 | 322 | 6.4 | 8.0 | 0.00 | 0.00 | 0.00 | 34 | 1025.8 |
| 20260501170510 | 22 | 356 | 4.8 | 6.4 | 0.00 | 0.00 | 0.00 | 33 | 1025.9 |
| 20260501170009 | 22 | 348 | 4.8 | 8.0 | 0.00 | 0.00 | 0.00 | 33 | 1026.0 |
| 20260501165508 | 22 | 320 | 8.0 | 11.3 | 0.00 | 0.00 | 0.00 | 34 | 1026.0 |
| 20260501165007 | 22 | 304 | 6.4 | 9.7 | 0.00 | 0.00 | 0.00 | 34 | 1026.0 |
| 20260501164506 | 22 | 324 | 8.0 | 12.9 | 0.00 | 0.00 | 0.00 | 33 | 1026.0 |
| 20260501164004 | 22 | 331 | 6.4 | 9.7 | 0.00 | 0.00 | 0.00 | 33 | 1026.0 |
| 20260501163503 | 22 | 324 | 9.7 | 12.9 | 0.00 | 0.00 | 0.00 | 33 | 1026.0 |
| 20260501163002 | 22 | 284 | 8.0 | 9.7 | 0.00 | 0.00 | 0.00 | 33 | 1026.0 |
| 20260501162501 | 22 | 358 | 6.4 | 12.9 | 0.00 | 0.00 | 0.00 | 32 | 1026.1 |
| 20260501161959 | 22 | 325 | 8.0 | 14.5 | 0.00 | 0.00 | 0.00 | 32 | 1026.1 |
| 20260501161458 | 23 | 341 | 9.7 | 14.5 | 0.00 | 0.00 | 0.00 | 32 | 1026.3 |
| 20260501160957 | 23 | 336 | 4.8 | 8.0 | 0.00 | 0.00 | 0.00 | 31 | 1026.3 |
| 20260501160455 | 23 | 316 | 4.8 | 9.7 | 0.00 | 0.00 | 0.00 | 31 | 1026.3 |
| 20260501155954 | 23 | 29 | 3.2 | 6.4 | 0.00 | 0.00 | 0.00 | 31 | 1026.4 |
| 20260501155453 | 23 | 3 | 4.8 | 11.3 | 0.00 | 0.00 | 0.00 | 31 | 1026.4 |
| 20260501154951 | 23 | 17 | 4.8 | 12.9 | 0.00 | 0.00 | 0.00 | 31 | 1026.4 |
| 20260501154450 | 23 | 309 | 6.4 | 11.3 | 0.00 | 0.00 | 0.00 | 31 | 1026.4 |
| 20260501153948 | 25 | 318 | 8.0 | 12.9 | 0.00 | 0.00 | 0.00 | 30 | 1026.4 |
| 20260501153447 | 25 | 70 | 3.2 | 4.8 | 0.00 | 0.00 | 0.00 | 30 | 1026.4 |
| 20260501152945 | 26 | 148 | 1.6 | 4.8 | 0.00 | 0.00 | 0.00 | 30 | 1026.4 |
| 20260501152443 | 25 | 138 | 1.6 | 3.2 | 0.00 | 0.00 | 0.00 | 30 | 1026.5 |
| 20260501151942 | 25 | 132 | 1.6 | 4.8 | 0.00 | 0.00 | 0.00 | 30 | 1026.6 |
| 20260501151440 | 24 | 114 | 1.6 | 4.8 | 0.00 | 0.00 | 0.00 | 30 | 1026.7 |
| 20260501150939 | 23 | 53 | 4.8 | 9.7 | 0.00 | 0.00 | 0.00 | 31 | 1026.8 |
| 20260501150437 | 24 | 321 | 9.7 | 16.1 | 0.00 | 0.00 | 0.00 | 30 | 1026.8 |
| 20260501145935 | 25 | 128 | 3.2 | 12.9 | 0.00 | 0.00 | 0.00 | 29 | 1026.7 |
| 20260501145434 | 25 | 136 | 1.6 | 6.4 | 0.00 | 0.00 | 0.00 | 30 | 1026.9 |
| 20260501144932 | 25 | 71 | 4.8 | 6.4 | 0.00 | 0.00 | 0.00 | 30 | 1027.0 |
| 20260501144431 | 25 | 39 | 4.8 | 8.0 | 0.00 | 0.00 | 0.00 | 30 | 1027.0 |
| 20260501143929 | 25 | 110 | 3.2 | 8.0 | 0.00 | 0.00 | 0.00 | 30 | 1027.0 |
| 20260501143427 | 25 | 100 | 1.6 | 3.2 | 0.00 | 0.00 | 0.00 | 30 | 1027.1 |
| 20260501142926 | 23 | 19 | 8.0 | 12.9 | 0.00 | 0.00 | 0.00 | 30 | 1027.2 |
| 20260501142424 | 25 | 16 | 3.2 | 6.4 | 0.00 | 0.00 | 0.00 | 29 | 1027.1 |
| 20260501141922 | 25 | 49 | 4.8 | 8.0 | 0.00 | 0.00 | 0.00 | 29 | 1027.2 |
| 20260501141421 | 25 | 72 | 3.2 | 8.0 | 0.00 | 0.00 | 0.00 | 29 | 1027.2 |
| 20260501140919 | 25 | 22 | 4.8 | 8.0 | 0.00 | 0.00 | 0.00 | 29 | 1027.2 |
| 20260501140417 | 26 | 66 | 3.2 | 6.4 | 0.00 | 0.00 | 0.00 | 29 | 1027.2 |
| 20260501135915 | 26 | 182 | 3.2 | 4.8 | 0.00 | 0.00 | 0.00 | 29 | 1027.2 |
| 20260501135414 | 25 | 140 | 1.6 | 3.2 | 0.00 | 0.00 | 0.00 | 29 | 1027.3 |
| 20260501134912 | 24 | 95 | 6.4 | 12.9 | 0.00 | 0.00 | 0.00 | 30 | 1027.3 |
| 20260501134410 | 25 | 46 | 3.2 | 8.0 | 0.00 | 0.00 | 0.00 | 29 | 1027.2 |